Branson, MO

2:41 AM CDT on March 27, 2017 (GMT -0500)
Branson

Weather History for KBBG - January, 2013

Change the Weather History Date:

Tuesday, January 8, 2013

  Actual Average (KHRO) Record (KHRO)
Temperature  
Mean Temperature 42 °F -  
Max Temperature 55 °F 40 °F 72 °F (1939)
Min Temperature 30 °F 21 °F -5 °F (1970)
Degree Days  
Heating Degree Days 22    
Moisture  
Dew Point 32 °F    
Average Humidity 71    
Maximum Humidity 100    
Minimum Humidity 43    
Precipitation  
Precipitation 0.00 in - - ()
Sea Level Pressure  
Sea Level Pressure 30.14 in    
Wind  
Wind Speed 6 mph (SSE)    
Max Wind Speed 13 mph    
Max Gust Speed -    
Visibility 10 miles    
Events Rain    
Averages and records for this station are not official NWS values.
T = Trace of Precipitation, MM = Missing Value Source: NWS Daily Summary

Daily Weather History Graph

Daily Weather History Graph

Search for Another Location

Airport or City:

Trip Planner

Search our weather history database for the weather conditions in past years. The results will help you decide how hot, cold, wet, or windy it might be!

Date:

Astronomy

Jan. 08, 2013 Rise Set
Actual Time 7:25 AM CST 5:14 PM CST
Civil Twilight 6:56 AM CST 5:42 PM CST
Nautical Twilight 6:24 AM CST 6:14 PM CST
Astronomical Twilight 5:53 AM CST 6:46 PM CST
Moon 3:59 AM CST (1/8) 2:16 PM CST (1/8)
Length of Visible Light 10h 46m
Length of Day
9h 49m
Waning Crescent, 13% of the Moon is Illuminated
Jan 8
Waning Crescent
Jan 11
New
Jan 18
First Quarter
Jan 26
Full
Feb 3
Last Quarter

Hourly Weather History & Observations

Time (CST) Temp. Windchill Dew Point Humidity Pressure Visibility Wind Dir Wind Speed Gust Speed Precip Events Conditions
12:15 AM 35.6 °F 30.7 °F 23.0 °F 60% 30.13 in 10.0 mi South 5.8 mph - N/A   Clear
12:35 AM 35.6 °F 31.7 °F 23.0 °F 60% 30.13 in 10.0 mi South 4.6 mph - N/A   Clear
12:55 AM 35.6 °F 30.7 °F 23.0 °F 60% 30.13 in 10.0 mi SSE 5.8 mph - N/A   Clear
1:15 AM 35.6 °F 30.7 °F 23.0 °F 60% 30.13 in 10.0 mi South 5.8 mph - N/A   Clear
1:35 AM 35.6 °F 29.9 °F 23.0 °F 60% 30.13 in 10.0 mi SSE 6.9 mph - N/A   Clear
1:55 AM 33.8 °F 29.6 °F 23.0 °F 65% 30.13 in 10.0 mi SSE 4.6 mph - N/A   Clear
2:15 AM 33.8 °F 29.6 °F 23.0 °F 65% 30.14 in 10.0 mi SSE 4.6 mph - N/A   Clear
2:35 AM 35.6 °F 29.9 °F 23.0 °F 60% 30.15 in 10.0 mi SSE 6.9 mph - N/A   Clear
2:55 AM 35.6 °F 29.9 °F 23.0 °F 60% 30.14 in 10.0 mi SSE 6.9 mph - N/A   Clear
3:15 AM 35.6 °F 29.9 °F 23.0 °F 60% 30.14 in 10.0 mi SSE 6.9 mph - N/A   Clear
3:35 AM 33.8 °F 28.6 °F 23.0 °F 65% 30.13 in 10.0 mi SSE 5.8 mph - N/A   Clear
3:55 AM 33.8 °F 28.6 °F 23.0 °F 65% 30.13 in 10.0 mi SSE 5.8 mph - N/A   Clear
4:15 AM 33.8 °F 28.6 °F 23.0 °F 65% 30.13 in 10.0 mi SSE 5.8 mph - N/A   Clear
4:35 AM 32.0 °F 26.4 °F 23.0 °F 69% 30.13 in 10.0 mi SSE 5.8 mph - N/A   Clear
4:55 AM 32.0 °F 25.6 °F 23.0 °F 69% 30.13 in 10.0 mi SSE 6.9 mph - N/A   Clear
5:35 AM 32.0 °F 27.5 °F 23.0 °F 69% 30.13 in 10.0 mi SSE 4.6 mph - N/A   Clear
6:48 AM 30.2 °F 24.3 °F 23.0 °F 75% 30.14 in 10.0 mi ESE 5.8 mph - N/A   Scattered Clouds
7:47 AM 32.0 °F 26.4 °F 23.0 °F 69% 30.16 in 10.0 mi SE 5.8 mph - N/A   Scattered Clouds
8:46 AM 35.6 °F 28.6 °F 24.8 °F 65% 30.16 in 10.0 mi SSE 9.2 mph - N/A   Mostly Cloudy
9:51 AM 39.2 °F 33.0 °F 26.6 °F 61% 30.17 in 10.0 mi SE 9.2 mph - N/A   Scattered Clouds
10:52 AM 44.6 °F 38.4 °F 26.6 °F 49% 30.16 in 10.0 mi SSE 12.7 mph - N/A   Mostly Cloudy
11:49 AM 50.0 °F - 28.4 °F 43% 30.13 in 10.0 mi SSE 6.9 mph - N/A   Mostly Cloudy
12:45 PM 53.6 °F - 32.0 °F 44% 30.09 in 10.0 mi ESE 9.2 mph - N/A   Mostly Cloudy
1:55 PM 55.4 °F - 33.8 °F 44% 30.07 in 10.0 mi SSE 9.2 mph - N/A   Mostly Cloudy
2:55 PM 55.4 °F - 37.4 °F 51% 30.08 in 10.0 mi SSE 8.1 mph - N/A   Overcast
3:45 PM 55.4 °F - 39.2 °F 54% 30.08 in 10.0 mi SE 11.5 mph - N/A   Overcast
4:52 PM 53.6 °F - 39.2 °F 58% 30.10 in 10.0 mi SSE 8.1 mph - N/A   Overcast
5:58 PM 51.8 °F - 39.2 °F 62% 30.11 in 10.0 mi SSE 9.2 mph - N/A   Overcast
6:56 PM 48.2 °F - 42.8 °F 82% 30.13 in 10.0 mi South 4.6 mph - N/A   Overcast
7:56 PM 46.4 °F - 44.6 °F 93% 30.15 in 8.0 mi Calm Calm - N/A Rain Light Rain
8:15 PM 46.4 °F 44.3 °F 44.6 °F 93% 30.15 in 10.0 mi ESE 4.6 mph - N/A   Scattered Clouds
8:35 PM 46.4 °F 43.5 °F 42.8 °F 87% 30.15 in 10.0 mi ESE 5.8 mph - N/A   Scattered Clouds
8:50 PM 46.4 °F - 42.8 °F 87% 30.15 in 10.0 mi Calm Calm - N/A   Overcast
8:55 PM 46.4 °F - 42.8 °F 87% 30.16 in 10.0 mi Calm Calm - N/A   Mostly Cloudy
9:15 PM 46.4 °F - 44.6 °F 93% 30.16 in 10.0 mi Calm Calm - N/A   Overcast
9:35 PM 46.4 °F - 44.6 °F 93% 30.16 in 10.0 mi Calm Calm - N/A   Overcast
9:55 PM 46.4 °F - 42.8 °F 87% 30.16 in 10.0 mi Calm Calm - N/A   Overcast
10:15 PM 46.4 °F - 41.0 °F 81% 30.16 in 10.0 mi Calm Calm - N/A   Overcast
10:35 PM 46.4 °F 45.2 °F 44.6 °F 93% 30.17 in 10.0 mi North 3.5 mph - N/A   Overcast
10:55 PM 46.4 °F - 42.8 °F 87% 30.19 in 10.0 mi Calm Calm - N/A   Overcast
11:15 PM 44.6 °F - 44.6 °F 100% 30.20 in 10.0 mi Calm Calm - N/A   Overcast
11:35 PM 44.6 °F 43.1 °F 44.6 °F 100% 30.21 in 10.0 mi NW 3.5 mph - N/A   Overcast
11:55 PM 44.6 °F 41.4 °F 44.6 °F 100% 30.22 in 7.0 mi NNW 5.8 mph - N/A   Overcast